• In Austria
  • List of Countries
  • For 7 days
  • Water Temperature
  • Satellite Maps
  • Weather Map
  • News
  • Weather Widgets
  • user-avatar
    Login

    Hourly Weather Mendoza

    Today, 18 July, Wednesday

    Time Temperature Precipitation Wind Pressure Humidity
    00:00 +6°C° 0 mm 4 mps 697 mmHg 80%
    01:00 +5°C° 0 mm 4 mps 697 mmHg 82%
    02:00 +5°C° 0 mm 4 mps 697 mmHg 83%
    03:00 +5°C° 0 mm 4 mps 697 mmHg 84%
    04:00 +4°C° 0 mm 4 mps 697 mmHg 85%
    05:00 +4°C° 0 mm 4 mps 697 mmHg 85%
    06:00 +4°C° 0 mm 4 mps 697 mmHg 85%
    07:00 +4°C° 0 mm 3 mps 698 mmHg 85%
    08:00 +5°C° 0.1 mm 4 mps 698 mmHg 82%
    09:00 +5°C° 0.1 mm 4 mps 698 mmHg 79%
    10:00 +6°C° 0.1 mm 4 mps 698 mmHg 76%
    11:00 +6°C° 0.1 mm 4 mps 698 mmHg 75%
    12:00 +7°C° 0.1 mm 5 mps 698 mmHg 73%
    13:00 +7°C° 0.1 mm 5 mps 697 mmHg 72%
    14:00 +7°C° 0.2 mm 5 mps 697 mmHg 74%
    15:00 +7°C° 0.2 mm 5 mps 697 mmHg 76%
    16:00 +6°C° 0.2 mm 5 mps 697 mmHg 77%
    17:00 +6°C° 0.4 mm 5 mps 698 mmHg 79%
    18:00 +6°C° 0.4 mm 4 mps 698 mmHg 81%
    19:00 +5°C° 0.4 mm 4 mps 699 mmHg 83%
    20:00 +5°C° 0.4 mm 4 mps 699 mmHg 84%
    21:00 +5°C° 0.4 mm 4 mps 699 mmHg 85%
    22:00 +5°C° 0.4 mm 3 mps 699 mmHg 85%
    23:00 +4°C° 0.4 mm 3 mps 699 mmHg 86%

    Tomorrow, 19 July, Thursday

    Time Temperature Precipitation Wind Pressure Humidity
    00:00 +4°C° 0.4 mm 3 mps 699 mmHg 86%
    01:00 +4°C° 0.4 mm 3 mps 699 mmHg 86%
    02:00 +4°C° 0.3 mm 3 mps 699 mmHg 86%
    03:00 +4°C° 0.3 mm 3 mps 699 mmHg 86%
    04:00 +3°C° 0.3 mm 3 mps 698 mmHg 86%
    05:00 +3°C° 0.4 mm 3 mps 699 mmHg 86%
    06:00 +3°C° 0.4 mm 3 mps 699 mmHg 86%
    07:00 +3°C° 0.4 mm 3 mps 699 mmHg 86%
    08:00 +3°C° 0.3 mm 3 mps 699 mmHg 85%
    09:00 +4°C° 0.3 mm 3 mps 699 mmHg 84%
    10:00 +4°C° 0.3 mm 4 mps 699 mmHg 82%
    11:00 +4°C° 0.3 mm 4 mps 699 mmHg 81%
    12:00 +4°C° 0.3 mm 4 mps 699 mmHg 79%
    13:00 +5°C° 0.3 mm 4 mps 699 mmHg 77%
    14:00 +5°C° 0.2 mm 4 mps 699 mmHg 77%
    15:00 +5°C° 0.2 mm 4 mps 699 mmHg 77%
    16:00 +5°C° 0.2 mm 4 mps 699 mmHg 76%
    17:00 +4°C° 0.2 mm 4 mps 700 mmHg 78%
    18:00 +4°C° 0.2 mm 4 mps 701 mmHg 79%
    19:00 +3°C° 0.2 mm 4 mps 702 mmHg 81%
    20:00 +3°C° 0.2 mm 3 mps 702 mmHg 80%
    21:00 +3°C° 0.2 mm 3 mps 703 mmHg 79%
    22:00 +3°C° 0.2 mm 3 mps 703 mmHg 78%
    23:00 +3°C° 0.1 mm 3 mps 704 mmHg 77%

    Day after tomorrow, 20 July, Friday

    Time Temperature Precipitation Wind Pressure Humidity
    00:00 +4°C° 0.1 mm 2 mps 704 mmHg 76%
    01:00 +3°C° 0.1 mm 2 mps 704 mmHg 76%
    02:00 +3°C° 0 mm 2 mps 704 mmHg 73%
    03:00 +3°C° 0 mm 2 mps 704 mmHg 71%
    04:00 +2°C° 0 mm 2 mps 704 mmHg 69%
    05:00 +2°C° 0 mm 2 mps 705 mmHg 67%
    06:00 +2°C° 0 mm 2 mps 705 mmHg 65%
    07:00 +2°C° 0 mm 2 mps 706 mmHg 62%
    08:00 +3°C° 0 mm 2 mps 705 mmHg 62%
    09:00 +4°C° 0 mm 2 mps 705 mmHg 63%
    10:00 +7°C° 0 mm 1 mps 705 mmHg 63%
    11:00 +6°C° 0 mm 2 mps 704 mmHg 63%
    12:00 +7°C° 0 mm 2 mps 703 mmHg 63%
    13:00 +8°C° 0 mm 3 mps 702 mmHg 64%
    14:00 +8°C° 0 mm 3 mps 702 mmHg 63%
    15:00 +7°C° 0 mm 3 mps 702 mmHg 62%
    16:00 +7°C° 0 mm 3 mps 701 mmHg 61%
    17:00 +7°C° 0 mm 3 mps 701 mmHg 61%
    18:00 +5°C° 0 mm 3 mps 702 mmHg 61%
    19:00 +5°C° 0 mm 2 mps 702 mmHg 61%
    20:00 +5°C° 0 mm 2 mps 701 mmHg 60%
    21:00 +5°C° 0 mm 2 mps 701 mmHg 59%
    22:00 +5°C° 0 mm 2 mps 701 mmHg 57%
    23:00 +5°C° 0 mm 2 mps 700 mmHg 57%

    21 July, Saturday

    Time Temperature Precipitation Wind Pressure Humidity
    00:00 +5°C° 0 mm 2 mps 700 mmHg 56%
    01:00 +4°C° 0 mm 3 mps 700 mmHg 56%
    02:00 +4°C° 0 mm 3 mps 699 mmHg 56%
    03:00 +3°C° 0 mm 3 mps 698 mmHg 56%
    04:00 +3°C° 0 mm 3 mps 698 mmHg 56%
    05:00 +3°C° 0 mm 3 mps 698 mmHg 55%
    06:00 +3°C° 0 mm 3 mps 698 mmHg 54%
    07:00 +4°C° 0 mm 2 mps 697 mmHg 53%
    08:00 +5°C° 0 mm 3 mps 697 mmHg 52%
    09:00 +8°C° 0 mm 3 mps 697 mmHg 52%
    10:00 +9°C° 0 mm 3 mps 696 mmHg 52%
    11:00 +10°C° 0 mm 3 mps 695 mmHg 49%
    12:00 +12°C° 0 mm 4 mps 694 mmHg 46%
    13:00 +13°C° 0 mm 4 mps 693 mmHg 43%
    14:00 +13°C° 0 mm 3 mps 693 mmHg 41%
    15:00 +12°C° 0 mm 3 mps 693 mmHg 39%
    16:00 +13°C° 0 mm 2 mps 693 mmHg 37%
    17:00 +11°C° 0 mm 3 mps 693 mmHg 37%
    18:00 +10°C° 0 mm 3 mps 693 mmHg 37%
    19:00 +8°C° 0 mm 4 mps 693 mmHg 37%
    20:00 +8°C° 0 mm 4 mps 694 mmHg 37%
    21:00 +8°C° 0 mm 4 mps 694 mmHg 36%
    22:00 +7°C° 0 mm 4 mps 694 mmHg 36%
    23:00 +7°C° 0 mm 4 mps 694 mmHg 37%

    22 July, Sunday

    Time Temperature Precipitation Wind Pressure Humidity
    00:00 +7°C° 0 mm 4 mps 695 mmHg 38%
    01:00 +6°C° 0 mm 4 mps 695 mmHg 38%
    02:00 +6°C° 0 mm 4 mps 695 mmHg 39%
    03:00 +6°C° 0 mm 4 mps 696 mmHg 40%
    04:00 +6°C° 0 mm 4 mps 696 mmHg 40%
    05:00 +5°C° 0 mm 4 mps 697 mmHg 41%
    06:00 +5°C° 0 mm 5 mps 698 mmHg 41%
    07:00 +5°C° 0 mm 5 mps 699 mmHg 42%
    08:00 +5°C° 0 mm 6 mps 699 mmHg 44%
    09:00 +7°C° 0 mm 6 mps 699 mmHg 47%
    10:00 +8°C° 0 mm 7 mps 699 mmHg 49%
    11:00 +8°C° 0 mm 7 mps 699 mmHg 48%
    12:00 +9°C° 0 mm 6 mps 699 mmHg 47%
    13:00 +9°C° 0 mm 6 mps 698 mmHg 47%
    14:00 +9°C° 0 mm 5 mps 698 mmHg 47%
    15:00 +8°C° 0 mm 5 mps 699 mmHg 46%
    16:00 +7°C° 0 mm 4 mps 699 mmHg 46%
    17:00 +6°C° 0 mm 4 mps 700 mmHg 49%
    18:00 +5°C° 0 mm 4 mps 701 mmHg 52%
    19:00 +4°C° 0 mm 4 mps 701 mmHg 55%
    20:00 +3°C° 0 mm 4 mps 702 mmHg 55%
    21:00 +3°C° 0 mm 4 mps 703 mmHg 56%
    22:00 +1°C° 0 mm 4 mps 703 mmHg 56%
    23:00 +1°C° 0 mm 5 mps 703 mmHg 56%

    23 July, Monday

    Time Temperature Precipitation Wind Pressure Humidity
    00:00 0°C° 0 mm 5 mps 704 mmHg 56%
    01:00 0°C° 0 mm 5 mps 704 mmHg 57%
    02:00 0°C° 0 mm 5 mps 705 mmHg 56%
    03:00 -1°C° 0 mm 5 mps 705 mmHg 56%
    04:00 -1°C° 0 mm 4 mps 705 mmHg 56%
    05:00 -1°C° 0 mm 4 mps 706 mmHg 56%
    06:00 -1°C° 0 mm 4 mps 706 mmHg 56%
    07:00 0°C° 0 mm 3 mps 707 mmHg 57%
    08:00 +1°C° 0 mm 3 mps 706 mmHg 54%
    09:00 +4°C° 0 mm 2 mps 706 mmHg 51%
    10:00 +5°C° 0 mm 2 mps 706 mmHg 48%
    11:00 +6°C° 0 mm 2 mps 706 mmHg 47%
    12:00 +8°C° 0 mm 1 mps 705 mmHg 46%
    13:00 +8°C° 0 mm 1 mps 704 mmHg 45%
    14:00 +8°C° 0 mm 1 mps 704 mmHg 45%
    15:00 +8°C° 0 mm 1 mps 704 mmHg 45%
    16:00 +8°C° 0 mm 1 mps 704 mmHg 46%
    17:00 +7°C° 0 mm 1 mps 705 mmHg 47%
    18:00 +5°C° 0 mm 2 mps 705 mmHg 49%
    19:00 +4°C° 0 mm 2 mps 706 mmHg 50%
    20:00 +4°C° 0 mm 2 mps 706 mmHg 50%
    21:00 +4°C° 0 mm 2 mps 705 mmHg 50%
    22:00 +4°C° 0 mm 2 mps 705 mmHg 50%
    23:00 +3°C° 0 mm 2 mps 705 mmHg 51%
    Show more